Regional Weather Roundup
Issued by NWS Midland/Odessa, TX

Skip options and go directly to product.
Home | Oldest Version | Previous Version | Current Version | All | Text Only | Save Text | Print | Product List | Glossary Off

Skip product version selection by date and time.   

276
ASUS44 KMAF 221210
RWRMAF
MIDLAND AREA WEATHER ROUNDUP
NATIONAL WEATHER SERVICE MIDLAND TX
600 AM CST MON DEC 22 2014

...IN SOUTHWEST TEXAS AND SOUTHEAST NEW MEXICO...

CITY           SKY/WX    TMP DP  RH WIND       PRES   REMARKS
ALPINE         CLOUDY    54  27  34 W14G20    29.94R
ANDREWS        FAIR      52  29  41 W9G20     29.72R
ARTESIA        CLOUDY    52  28  40 W12       29.78R
BIG SPRING     CLOUDY    52  30  43 S7        29.70R
CARLSBAD       CLOUDY    60  28  29 W22G29    29.74R
DRYDEN           N/A     41  40  96 NE6       29.76R WCI  37
FORT STOCKTON  CLOUDY    56  28  34 SW14      29.76S
GUAD PASS      NOT AVBL
HOBBS          CLOUDY    52  28  40 W18       29.75R
MARFA          CLOUDY    48  25  40 CALM      29.95R
MIDLAND AIRPK  CLOUDY    55  29  36 W16       29.70S
MIDLAND INTL   CLOUDY    53  29  39 W14       29.70S
ODESSA         CLOUDY    51  28  41 W7        29.72S
PECOS          CLOUDY    59  31  34 W22G29    29.74F
PRESIDIO       FAIR      49  28  43 N5        29.88R
SEMINOLE       CLOUDY    53  30  41 W13       29.72R
SNYDER         MOCLDY    49  32  51 W10       29.65R
WINK           CLOUDY    56  28  34 W15       29.72S
$$
...OTHER STATIONS IN TEXAS...

CITY           SKY/WX    TMP DP  RH WIND       PRES   REMARKS
ABILENE        CLEAR     49  40  71 SW12      29.61R
AMARILLO       MOCLDY    40  31  70 W13       29.66R WCI  32
AUSTIN         MOCLDY    57  55  93 S14       29.72F
BROWNSVILLE    CLOUDY    63  62  97 S10       29.79S FOG
CORPUS CHRISTI CLOUDY    59  59 100 S6        29.78R FOG
DALLAS FTW     PTCLDY    49  46  90 S12       29.59S
DEL RIO        FOG       53  53 100 SE3       29.76S VSB 3/4
EL PASO        MOCLDY    54  31  41 NW10      29.89F
HOUSTON INT    MOCLDY    56  55  97 SE3       29.76S FOG
LUBBOCK        CLEAR     49  31  49 NW16      29.65R
SAN ANGELO     PTCLDY    49  43  80 SW13      29.69S
SAN ANTONIO    CLOUDY    57  55  93 SW6       29.76F FOG
WACO           PTCLDY    55  52  89 S16       29.64F
WICHITA FALLS  NOT AVBL
$$
...OTHER LOCATIONS IN NEW MEXICO...

CITY           SKY/WX    TMP DP  RH WIND       PRES   REMARKS
ALAMAGORDO     PTCLDY    32  27  80 CALM      29.90R
ALBUQUERQUE    MOCLDY    35  29  78 SE3       29.91S
CANNON AFB     CLEAR     49  31  49 NW14      29.69R
CLOVIS         CLEAR     45  28  53 NW10      29.69R WCI  39
HOLLOMAN AFB   PTCLDY    33  28  80 CALM      29.89R
ROSWELL        CLOUDY    54  29  38 VRB3      29.73S
RUIDOSO        PTCLDY    46  27  46 NW24G40   29.88R WCI  38
SANTA FE       PTCLDY    39  29  67 W23G31    29.83R WCI  28
TRUTH OR CONSE MOCLDY    50  32  50 W15       29.90F
TUCUMCARI      CLEAR     39  27  62 N5        29.69R WCI  36
$$

USA.gov is the U.S. government's official web portal to all federal, state and local government web resources and services.